Вернуться в каталог

STARLINK-3925

АктивенСвязьVLEO
NORAD 52498·PAYLOAD·🇺🇸 United States

Запущен May 6, 2022 с Cape Canaveral Space Force Station

Loading…

Ближайшие Пролёты (ближайшие 24 часа)

TLE

СвежийSource: CelesTrak SupGP

Эпоха: Sep 14, 2026, 14:40 UTC

1 52498C 22049AZ  26257.61159722 -.00040853  00000+0 -12072-2 0  2572
2 52498  53.1570 264.9197 0001067  72.8894  49.8748 15.34407275    10

Отслеживайте STARLINK-3925 в реальном времени с AllMySat

Download on the App Store